Showing default

INMARSAT 5-F3, 40882

Orbit data source: Space-Track

INMARSAT 5-F3, 40882 is a payload satellite owned by INMARSAT-Ltd (UK) in GEO that was launched on Fri, 28 Aug 2015 UTC via a PROTON-M/BRIZ-M launch vehicle from the Tyuratam Missile And Space Complex (TTMTR). Payload-class satellites include a variety of spacecraft equipped with specific instruments for various scientific and technological missions. These include communications satellites like Starlink; space stations such as the ISS; scientific satellites like the Hubble; Earth observation satellites from companies like Planet Labs, Umbra, and HawkEye 360; GPS; miniature CubeSats for education and research; and military/defense satellites.

Not visible in the next 10 days
Identifier
40882, 2015-042A
Orbit
GEO
Country
Flag of IMIM
Related business
Manufacturer
Boeing/ES
Mission
Operational Commercial Communications
Bus & Motor
BSS-702HP, R-4D
Mass
6,070 kg wet, 3,700 kg dry
Launch date (UTC)
2015-08-28 (11 years ago)
Launch vehicle
PROTON-M/BRIZ-M
Launch site
Tyuratam Missile And Space Complex (TTMTR)
Object type
Payload
Rocket body
Debris
Shape & HBR
Box + 2 Pan, 16.9 m
Radar Cross Section
53.751 m², Large (>1 m²)

Expand to show TLE details & history
Last TLE update: 2 days ago

TLE from 2 days ago
0 INMARSAT 5-F3
1 40882U 15042A   26171.14240558  .00000045  00000-0  00000-0 0  9999
2 40882   0.0179  19.7886 0000186  35.7715  83.6787  1.00269689 39601
Epoch: 2026-06-20T03:25Z
TLE epoch observation values (Epoch: 2026-06-20T03:25:03.842Z)
Latitude
0.02979°
Longitude
179.62615°
Altitude
35,786.58 km
Speed
3.075 km/s
True Right ascension
09h 17m 00s
True Declination
0° 01' 47"
Sunlit
Object was in daylight at epoch
Visualization orbit readout
Latitude
Unknown
Longitude
Unknown
Altitude
Unknown
Speed
Unknown
Apparent Right ascension
Unknown
Apparent Declination
Unknown
Sunlit
N/A
Visualization observer readout
Local Sidereal Time
22:01:04
Azimuth
Unknown
Elevation
Unknown
Doppler factor
Unknown
Orbital elements
Apogee altitude
35,789.037 km
Perigee altitude
35,787.469 km
Semi-major axis
42,166.39 km
Eccentricity
0.00002
Inclination
0.0179°
RAAN
19.7886°
Arg. of periapsis
35.7715°
True anomaly
83.68082°
Mean anomaly
83.6787°
Eccentric anomaly
83.67976°
Mean motion
0.25066 °/min
Orbital period
1,436.18 mins
BSTAR
0
Loading maneuver chart data...
Computing Atmospheric mass density...
Loading historical data...
Loading historical data...
Loading historical data...
Loading historical data...
Loading historical data...
Loading historical data...
Loading historical data...
Other satellites on launch #42 in the year 2015 (2015-08-28 UTC)

Documentation

Showing up to 5 results
|